Theta_e
327 330 330 330 329 329 329 329 328 327 327 327 325 325 323 323 322 321 321 320 319 319 319 320 319 320 320 319 314 311 309 307 305 304 304 303 302 301 300 300 300 300 301 301 301 301 300 300 300 299 298 297 296 296 295 295 295 295 295 294 294 293 293 294 291 290 290 291 291
323 328 329 329 329 329 329 329 328 327 327 327 326 325 324 324 323 322 322 320 320 320 320 319 318 317 316 315 313 310 306 304 304 304 303 302 301 300 300 300 300 300 301 301 301 300 300 299 299 298 297 296 295 295 294 294 294 294 293 292 292 292 293 292 290 290 290 290 291
320 325 328 329 329 329 329 328 328 327 327 327 326 325 324 324 323 323 322 322 321 320 319 316 314 312 310 309 308 306 304 302 302 301 301 300 300 300 300 300 300 301 301 301 301 301 300 299 299 298 297 296 295 294 294 294 294 292 291 290 291 291 291 290 290 290 290 290 290
318 323 326 328 329 329 329 328 328 328 327 326 326 325 323 323 323 323 322 321 320 318 316 313 310 308 306 305 304 303 302 302 301 300 299 299 299 299 300 300 300 301 301 301 301 301 300 299 299 298 297 295 295 294 294 293 293 292 291 291 291 290 290 289 290 290 290 289 289
317 321 325 327 328 328 328 328 328 327 327 326 325 323 322 321 321 321 320 319 318 315 313 310 307 305 304 303 302 302 302 301 301 300 299 299 300 300 300 300 300 301 301 302 302 301 301 300 299 298 297 295 295 294 294 293 293 292 292 292 292 292 291 291 291 291 291 289 288
316 320 324 326 327 328 328 328 328 328 327 326 324 322 321 320 319 318 316 316 314 312 309 307 305 304 302 302 301 301 301 301 301 300 299 299 300 300 300 300 301 302 302 302 302 301 300 300 299 298 297 296 295 294 294 294 293 293 293 293 293 292 292 291 292 292 292 290 289
315 319 322 325 326 327 327 328 327 327 326 324 322 321 320 319 317 315 314 312 310 308 307 306 304 303 301 301 301 300 300 300 300 300 299 299 299 300 300 300 301 301 301 301 300 299 299 298 297 297 296 296 295 294 293 293 293 292 292 292 292 292 291 291 291 291 291 290 290
315 318 321 324 326 326 327 327 326 325 323 322 320 319 318 316 314 312 311 309 307 307 306 305 303 302 301 301 300 300 300 300 299 299 299 299 299 299 299 299 300 300 299 299 298 298 298 298 297 296 295 295 294 293 293 293 293 292 291 290 290 290 290 289 289 290 290 290 289
315 318 321 323 325 326 326 325 324 323 321 320 319 317 315 313 310 309 309 308 307 306 305 304 302 301 301 301 300 300 300 299 299 299 299 299 299 299 299 299 299 298 298 298 298 297 297 297 296 296 295 294 293 293 293 293 292 291 290 290 289 289 289 289 289 289 289 289 289
314 317 320 322 323 324 323 323 321 320 319 317 315 313 312 310 308 308 307 307 306 304 303 302 301 301 301 300 300 300 300 300 300 299 299 299 299 299 298 298 298 297 297 297 297 297 297 296 296 295 294 293 293 292 292 292 291 290 290 289 289 289 289 289 288 288 289 288 288
313 317 319 321 322 321 320 319 318 317 316 315 313 311 310 309 308 307 306 305 304 303 302 301 301 300 300 300 300 299 300 299 299 299 299 299 299 298 298 298 297 297 296 296 297 297 296 295 294 294 293 293 292 292 291 291 290 289 289 288 288 288 287 288 288 288 288 288 288
314 316 318 319 319 319 318 317 316 316 315 313 311 310 309 307 306 306 305 304 303 302 301 300 300 300 300 299 299 299 299 299 298 298 298 298 298 298 298 298 297 297 296 296 296 296 295 294 293 293 292 292 292 291 291 290 289 288 288 288 287 287 287 287 288 288 289 289 288
313 315 316 316 316 317 317 316 316 315 314 312 310 309 307 306 305 304 303 302 302 301 300 300 301 301 300 299 299 299 299 299 299 298 298 298 298 298 298 297 297 296 296 296 296 295 294 293 292 292 291 291 291 290 290 290 289 288 288 288 288 288 288 288 288 289 289 290 289
311 313 313 314 315 316 316 315 314 313 312 310 309 307 306 304 304 303 302 301 301 300 299 300 300 300 300 300 299 299 299 299 299 298 298 298 298 298 297 297 296 296 295 295 295 294 293 292 292 291 291 290 290 289 289 289 289 289 289 289 289 288 288 288 288 288 289 289 289
310 310 311 312 314 315 315 315 313 311 310 308 307 306 305 304 303 302 301 300 300 299 299 299 299 300 299 299 299 299 299 299 299 298 298 298 297 297 297 296 295 295 294 294 293 293 292 291 291 290 290 289 289 289 290 290 290 290 290 290 289 289 288 288 288 288 288 288 288
307 309 310 311 313 314 314 314 312 310 308 307 305 304 303 303 302 301 300 299 299 299 299 299 299 299 299 299 299 299 299 299 299 298 297 297 296 296 295 295 294 294 293 293 292 292 291 291 290 290 290 290 290 290 290 291 291 291 291 290 290 289 289 288 288 288 288 289 289
306 307 308 310 311 312 312 312 310 308 307 305 304 303 302 302 301 300 300 299 299 299 299 299 299 299 299 299 299 299 299 298 298 297 297 296 295 295 294 294 293 293 292 292 291 291 291 291 291 291 291 291 291 291 291 291 291 291 291 290 290 289 289 289 288 288 288 289 289
305 306 307 308 309 309 310 309 308 307 305 304 303 302 301 301 300 300 299 300 299 299 298 298 299 299 299 299 299 298 298 298 297 297 296 296 295 294 294 293 292 292 292 291 291 291 291 291 292 292 292 292 292 291 291 291 291 290 290 289 289 289 288 288 288 288 288 289 289
305 305 305 306 306 307 307 307 306 305 304 303 302 301 301 300 300 299 299 299 299 299 298 298 299 299 298 298 298 298 298 297 297 296 296 295 294 294 293 292 292 292 291 291 291 291 292 292 292 292 292 291 291 291 290 290 289 289 289 288 288 288 287 287 287 288 288 288 288
304 304 304 304 304 305 305 305 304 304 303 302 301 300 300 300 299 299 299 299 299 299 298 298 298 298 298 297 297 297 297 296 296 295 295 294 294 293 292 292 292 292 292 292 292 292 292 292 292 291 291 290 290 289 289 289 288 288 288 287 287 287 286 286 286 286 286 287 286
303 303 303 303 303 304 304 304 303 302 301 300 300 300 300 299 299 299 299 299 299 299 299 298 298 297 297 297 296 296 296 296 295 294 294 293 293 293 292 292 292 292 292 292 292 292 292 291 291 290 290 290 289 289 288 288 288 288 287 287 287 286 286 286 285 285 285 285 285
302 302 302 302 302 303 303 303 302 301 300 300 300 299 299 299 299 299 299 299 299 299 298 298 298 297 296 296 295 295 294 294 294 294 293 293 293 293 293 293 292 292 292 292 291 291 291 291 290 290 290 289 289 288 288 288 287 287 287 286 286 286 285 285 285 285 285 285 284
302 302 302 302 302 302 302 302 301 300 300 299 299 299 299 299 299 299 299 299 299 298 297 297 297 296 295 295 294 294 294 293 293 293 293 293 293 293 293 293 292 292 292 291 291 291 291 290 290 290 289 289 289 288 288 288 287 287 286 285 285 285 285 285 285 285 284 284 284
301 301 301 302 302 302 302 301 300 300 299 299 299 299 299 299 299 299 299 298 298 297 296 296 296 295 295 294 294 293 293 293 292 292 292 293 293 293 293 292 292 292 291 291 291 291 291 290 290 289 289 289 289 288 288 287 287 286 286 285 285 285 284 284 284 284 284 284 284
301 301 301 301 302 302 301 301 300 299 299 299 299 299 299 298 298 298 297 297 296 295 295 295 295 294 294 294 293 293 293 293 292 292 292 292 292 292 292 292 292 292 292 292 293 293 292 291 290 289 289 289 288 288 288 287 287 286 286 286 285 285 285 284 284 284 284 283 283
301 301 301 301 301 301 300 300 300 299 299 298 298 298 298 298 297 297 296 295 295 295 294 294 294 294 293 293 293 293 292 292 292 292 292 291 291 291 291 291 291 292 292 293 294 294 293 293 292 290 289 288 288 288 287 287 287 287 286 286 286 285 285 284 284 284 283 283 282
301 300 300 300 301 300 300 300 299 299 298 298 297 297 297 297 296 295 294 294 294 294 293 293 293 293 293 292 292 292 292 292 292 291 291 291 291 291 291 291 291 292 293 294 294 294 294 293 292 291 290 288 288 287 287 287 286 286 286 286 286 286 285 285 284 283 283 282 281
300 300 300 301 300 300 300 299 299 298 297 297 297 296 296 295 295 294 294 293 293 293 293 293 293 293 292 292 291 291 291 291 291 291 291 291 291 291 291 291 292 292 294 295 295 295 294 293 293 292 291 289 288 287 287 286 286 286 286 286 285 285 285 284 284 283 282 281 281
300 300 300 300 299 299 298 298 297 297 296 296 295 295 295 294 294 293 293 293 293 292 292 292 292 292 291 291 291 291 291 291 291 291 291 291 291 291 291 292 292 293 294 295 295 295 294 294 293 292 291 290 288 287 287 286 286 285 285 285 284 284 283 283 282 282 281 281 281
300 299 299 298 298 297 297 296 296 295 295 295 294 294 294 293 293 293 292 292 292 292 292 292 291 291 291 290 291 291 290 291 291 291 291 291 291 291 292 292 293 294 295 295 295 295 294 294 293 293 291 290 288 287 286 286 285 285 284 283 283 283 282 281 281 281 281 282 281
299 298 298 297 296 295 295 295 295 295 294 294 294 293 293 293 292 292 292 292 292 292 292 291 291 290 290 290 290 290 290 290 291 291 291 291 291 292 292 293 293 294 295 296 296 295 294 294 293 292 291 289 288 286 285 285 284 284 283 282 282 282 282 281 281 281 281 282 282
298 297 296 295 295 294 294 294 294 294 294 293 293 293 292 292 291 291 291 291 291 291 291 290 290 290 290 290 290 290 290 290 291 291 291 292 292 293 293 294 294 294 295 296 295 295 294 293 292 291 290 289 287 285 284 284 283 283 282 282 282 282 282 282 282 281 281 281 281
296 296 295 294 294 294 294 293 293 293 293 292 292 291 291 291 290 291 291 291 291 290 290 290 290 290 290 290 290 290 290 291 292 292 293 293 293 293 293 294 294 295 295 295 295 294 293 292 291 290 289 288 286 284 283 283 283 283 282 282 282 282 281 281 281 281 280 280 280
295 295 294 294 293 293 293 292 292 292 291 291 290 290 290 290 290 290 290 290 290 290 290 290 290 290 290 290 290 291 291 292 292 293 293 293 293 293 293 293 294 294 295 295 294 293 292 292 291 290 289 287 285 284 283 283 283 282 282 281 281 281 280 280 280 279 279 279 279
294 293 293 292 292 292 291 291 291 290 290 289 289 289 289 290 290 290 290 290 290 290 290 290 290 290 291 291 291 292 292 292 292 292 293 293 293 293 293 293 293 294 294 294 293 293 292 291 290 289 288 286 284 283 283 283 282 282 281 281 281 280 280 279 279 278 278 278 278
292 292 291 291 291 290 290 290 290 289 289 289 289 289 289 289 290 290 290 291 290 290 290 290 290 290 290 291 291 291 292 291 292 292 292 293 293 292 292 292 293 293 294 293 293 292 291 290 289 288 287 285 283 283 283 282 282 282 281 281 280 280 279 279 279 278 278 278 278
291 291 290 290 290 290 289 290 289 289 289 289 289 289 289 289 289 290 290 290 289 289 289 289 290 290 290 290 290 291 291 291 291 292 292 292 292 292 292 292 292 293 293 293 292 291 290 289 288 287 286 283 283 282 282 282 282 281 281 280 280 279 279 278 278 277 277 277 278
291 290 290 289 289 289 289 289 289 289 288 288 288 289 289 289 289 289 290 290 289 289 289 289 289 289 290 290 290 290 291 291 291 291 291 291 291 291 291 291 291 291 292 292 291 290 289 289 288 287 285 283 282 282 282 282 281 281 281 280 279 279 278 277 277 276 277 278 282
290 290 290 290 289 289 289 289 289 288 288 288 288 288 289 289 289 289 289 290 289 289 288 289 289 289 289 290 290 290 290 290 291 291 290 290 290 291 290 290 290 290 291 291 290 290 289 288 288 287 285 284 283 282 282 281 281 280 280 280 279 278 278 277 276 276 277 278 283
290 290 290 290 289 289 289 288 288 288 288 288 288 288 288 288 289 289 289 289 289 289 289 288 289 289 289 290 289 289 289 289 289 289 289 289 290 290 290 289 289 289 290 290 290 289 289 288 288 287 285 283 282 282 282 281 280 280 279 279 279 279 278 277 276 276 276 277 280
290 290 289 289 289 289 288 288 288 288 288 288 288 288 288 289 289 289 289 288 289 289 289 289 289 289 289 289 288 287 287 287 287 288 288 288 288 288 288 288 288 288 289 290 290 289 289 288 288 287 285 283 282 282 281 281 280 280 279 278 277 277 277 277 276 276 276 277 277
Wind_Speed
8 8 8 8 8 8 8 8 8 8 8 8 9 9 9 9 9 9 8 8 8 8 8 8 7 7 8 10 11 11 10 11 12 14 15 15 14 14 14 14 13 13 13 13 12 10 8 8 7 6 5 5 5 5 5 5 6 6 5 5 4 5 5 6 6 6 6 5 3
10 10 10 9 9 8 8 8 8 8 8 8 8 9 9 9 9 9 9 9 8 7 6 5 5 5 7 9 10 10 9 9 10 11 13 14 14 15 15 14 14 14 14 15 13 10 9 9 9 7 6 6 6 6 6 6 7 7 7 7 6 5 5 6 6 7 7 6 4
10 11 10 10 10 9 9 9 9 10 10 10 9 9 9 9 9 8 8 8 7 6 4 3 4 5 7 9 9 10 10 10 10 10 11 12 14 14 14 14 14 14 14 14 12 11 10 10 9 8 8 7 8 7 7 7 7 8 8 8 6 5 5 5 6 6 5 4 5
10 11 11 12 13 13 12 10 11 12 12 10 9 8 8 8 7 7 6 7 6 5 4 4 5 6 7 9 10 11 11 12 12 11 11 11 12 13 14 14 14 14 13 12 12 11 10 10 8 8 9 11 11 10 8 7 7 6 6 6 5 5 5 5 5 5 4 4 4
10 11 11 12 14 14 13 12 12 12 11 9 8 7 7 6 5 5 4 5 5 5 6 6 6 7 8 10 11 12 12 13 13 12 11 11 12 13 13 14 13 13 12 12 12 12 11 10 7 6 8 10 10 9 9 9 9 7 6 5 5 5 5 5 4 3 3 3 3
10 11 12 12 14 14 13 12 12 11 9 7 7 7 6 5 5 4 4 5 5 6 7 8 8 8 9 10 12 12 12 12 12 12 12 13 12 12 13 13 13 12 11 11 12 11 10 8 6 5 6 7 7 8 10 12 10 9 8 6 5 5 5 5 4 3 3 3 4
10 11 12 12 13 12 12 11 9 8 6 6 7 8 8 6 6 6 6 5 5 6 7 7 8 9 10 11 11 11 11 11 11 12 13 12 12 13 13 12 13 12 11 11 11 10 9 7 5 5 5 5 5 8 10 11 10 10 9 8 6 6 6 7 5 4 4 5 5
9 10 11 11 11 11 11 10 7 6 5 5 6 7 8 7 7 7 7 6 6 7 7 7 9 10 11 11 11 11 12 12 11 11 12 11 13 13 13 12 12 11 11 11 10 10 8 6 5 5 6 5 5 7 9 11 11 11 10 9 7 6 6 6 6 6 6 7 7
8 9 10 10 10 10 9 8 7 6 6 6 6 7 7 7 7 8 7 7 7 7 7 8 10 11 12 12 12 11 11 11 11 11 11 11 13 13 12 11 11 11 10 10 10 10 9 6 6 6 6 5 6 7 9 12 13 12 11 9 7 6 6 6 6 7 7 8 8
8 9 9 9 9 8 8 7 6 6 7 6 7 7 7 8 8 8 7 6 7 8 8 9 11 12 12 12 11 10 10 10 10 11 11 11 12 12 12 11 11 11 10 10 10 10 9 7 7 7 6 6 7 9 10 12 13 13 11 8 8 9 8 6 7 7 8 8 8
8 8 8 7 7 7 6 6 6 6 6 6 7 8 8 8 8 8 7 7 8 9 10 10 11 12 12 11 11 10 10 9 9 10 11 11 12 12 12 11 11 11 11 10 10 9 8 7 8 9 9 8 9 10 11 13 13 13 12 10 11 11 10 8 7 7 8 8 8
7 6 6 5 5 6 6 6 5 5 6 7 8 8 8 8 9 9 9 9 10 10 10 10 10 10 10 10 10 10 10 10 11 11 11 11 11 11 11 11 11 11 11 11 9 8 7 8 10 11 11 11 9 10 11 13 14 14 13 12 12 12 11 9 8 7 7 8 8
4 4 4 4 5 6 6 6 5 5 6 7 7 8 8 8 9 10 10 10 10 10 9 9 9 9 9 9 10 10 11 11 11 11 11 11 11 11 11 10 11 11 10 10 8 8 8 9 11 12 12 12 10 10 12 14 14 14 14 14 13 12 11 10 9 8 8 8 7
1 2 3 4 5 6 6 6 5 5 5 7 7 7 7 8 9 9 10 10 10 10 10 9 9 9 9 10 11 11 11 11 12 11 11 11 11 11 11 10 10 10 9 8 8 8 9 10 11 12 13 12 11 11 12 13 13 13 14 14 13 12 11 10 9 9 8 8 7
2 2 2 4 5 5 5 5 4 4 5 6 6 7 7 7 8 9 9 10 10 10 10 9 9 9 10 11 12 12 12 12 12 12 12 11 11 11 11 10 10 10 9 8 8 9 10 11 12 12 12 12 12 12 12 12 12 12 12 13 12 12 10 9 9 8 8 8 7
4 4 3 3 4 4 4 5 4 4 5 6 6 6 7 7 7 8 9 10 10 10 10 10 9 9 10 11 12 12 12 12 12 12 12 11 11 11 11 11 11 10 10 10 10 10 10 11 11 12 12 12 12 12 12 12 12 12 12 11 11 10 10 9 8 8 7 7 6
5 5 4 3 4 4 4 4 4 5 5 6 6 6 6 7 7 8 9 10 9 10 10 11 10 9 9 10 10 11 11 11 11 11 11 11 11 12 12 12 11 11 11 11 11 11 11 11 11 12 12 13 12 12 12 12 12 11 11 10 10 9 9 8 8 7 7 6 6
5 5 4 4 5 5 5 6 6 6 6 7 7 6 6 6 7 8 8 9 10 11 11 11 10 10 10 10 9 9 9 9 10 10 10 11 11 12 12 12 11 11 11 11 11 12 12 12 12 12 12 12 12 11 11 11 11 10 10 9 8 8 7 7 7 6 6 5 5
5 5 5 5 5 6 6 7 7 7 7 7 7 7 6 7 7 8 8 9 10 11 12 11 10 10 10 10 9 8 8 9 10 10 10 11 11 11 12 12 11 11 11 11 12 12 12 12 12 12 12 11 11 11 11 10 10 9 9 8 8 7 7 6 6 6 5 5 5
6 5 5 5 6 7 7 7 8 8 8 7 7 7 7 7 8 8 9 9 10 11 11 11 10 10 10 10 10 9 8 8 10 11 11 11 11 12 12 13 13 12 12 12 12 12 12 12 12 12 12 12 12 11 11 10 10 9 9 8 7 7 6 6 5 5 5 5 5
6 6 6 6 7 7 7 8 8 8 8 8 8 8 8 8 8 9 9 10 10 10 10 11 11 11 11 11 11 10 9 8 10 11 11 11 12 13 13 13 13 13 12 12 12 12 12 12 12 12 12 12 12 11 11 10 10 9 9 7 7 7 7 6 6 5 5 5 5
7 7 7 8 8 8 8 9 9 9 9 9 9 8 9 9 9 9 9 10 10 10 10 10 10 10 11 11 11 11 10 9 10 11 11 11 12 12 12 13 13 13 13 12 12 12 12 12 12 12 11 11 11 11 11 10 10 10 9 9 8 7 7 6 6 5 5 5 5
7 8 8 8 9 9 9 9 9 9 9 9 9 9 9 10 10 10 10 10 10 10 9 9 9 10 10 11 11 11 11 11 11 11 11 11 12 13 12 12 13 13 12 11 11 11 12 11 11 11 11 11 11 11 11 10 10 10 9 9 9 8 7 6 5 5 5 4 4
8 8 8 8 10 10 10 9 9 9 9 9 9 9 10 10 10 10 10 10 10 10 9 8 9 10 10 11 11 12 12 13 13 12 12 12 13 13 12 11 11 11 10 9 10 10 11 10 10 10 10 10 10 10 10 10 9 9 9 9 8 7 6 5 5 4 4 4 3
9 10 10 10 10 10 10 9 9 9 9 9 9 9 10 10 10 10 10 10 10 10 10 10 10 10 10 10 11 11 12 13 13 13 13 13 13 12 11 10 9 9 8 9 13 14 14 11 10 9 9 9 9 9 9 9 9 9 9 9 8 7 6 5 5 4 3 3 2
11 11 11 11 11 10 10 9 9 9 9 9 9 9 10 10 10 10 10 11 10 10 10 10 10 10 10 10 11 11 11 11 12 13 13 13 12 11 10 9 8 7 8 12 16 18 17 16 14 12 10 9 9 8 8 8 8 8 8 8 7 7 6 5 5 4 3 2 1
11 11 11 11 11 10 10 9 9 9 9 9 9 9 9 9 9 10 11 11 11 11 10 10 10 10 10 10 11 11 11 10 11 12 13 13 13 12 10 9 8 7 9 15 18 19 19 19 17 15 12 9 8 8 7 7 7 7 7 6 6 6 5 5 5 4 3 2 2
11 12 12 12 11 10 10 9 9 9 9 9 9 9 9 10 10 10 11 11 11 10 9 9 9 8 8 8 10 11 12 11 11 11 11 12 12 12 11 9 8 9 13 18 20 20 20 19 18 16 14 10 8 7 7 7 6 6 5 5 4 4 4 4 4 4 4 3 3
12 12 12 12 11 10 10 10 10 10 9 9 9 9 10 10 10 10 11 11 10 10 8 7 7 7 7 8 10 11 11 11 10 10 11 12 12 11 11 10 10 12 16 20 20 20 19 19 18 16 14 11 8 6 5 5 5 5 4 4 4 4 4 4 4 4 4 4 4
12 12 12 12 11 11 10 10 10 10 9 9 9 10 10 10 10 10 10 10 10 9 8 8 8 8 9 10 10 10 10 10 10 10 11 13 12 12 11 11 11 13 17 21 20 19 19 18 17 16 15 12 9 6 5 5 5 4 4 4 4 5 5 5 5 5 5 4 4
12 12 12 12 11 11 10 10 10 9 9 9 9 10 10 10 10 10 9 9 9 9 9 10 10 11 11 10 10 10 10 10 10 10 11 13 13 13 12 12 12 14 16 20 20 19 18 17 17 16 14 13 9 7 5 5 5 5 5 5 5 6 6 5 5 5 5 5 5
12 12 12 12 12 11 11 10 10 10 10 10 10 10 10 10 9 9 9 9 10 10 11 11 12 12 12 11 11 10 10 10 10 10 11 12 13 13 12 12 12 14 16 19 19 18 18 17 16 15 14 13 10 7 6 6 6 6 6 6 7 6 6 5 5 5 5 5 4
11 12 12 12 12 11 11 11 10 10 10 10 10 10 10 10 10 9 9 9 10 11 11 12 12 12 12 12 11 11 11 11 11 12 12 13 12 12 12 12 11 13 16 19 18 18 17 17 16 16 14 13 9 7 7 6 6 6 6 6 6 6 6 5 5 4 4 3 3
11 12 12 12 12 11 11 11 10 10 11 11 11 10 10 10 10 10 10 9 9 10 10 10 11 11 11 11 11 11 11 11 11 11 12 12 12 12 12 10 9 13 17 19 18 18 17 17 16 15 14 12 9 7 7 7 7 6 6 6 6 5 5 5 4 3 3 2 2
11 12 12 12 11 11 11 11 11 11 11 11 11 11 11 10 11 11 10 10 10 10 9 9 10 10 10 10 10 11 11 12 11 11 11 11 11 12 12 10 11 14 18 19 18 18 17 16 16 15 14 11 8 7 7 8 7 7 7 7 6 5 5 4 3 2 2 1 1
11 11 12 12 12 12 11 11 11 11 11 11 11 11 11 10 10 10 10 11 11 10 10 10 10 10 10 10 9 10 11 11 11 11 10 11 11 12 12 12 13 15 18 18 18 17 17 16 15 14 12 9 7 6 7 7 7 7 7 7 6 5 4 4 3 2 1 1 1
11 11 12 12 12 12 11 11 11 11 11 11 11 11 10 10 10 9 9 10 11 11 10 10 10 10 10 10 10 10 10 10 11 11 11 10 11 12 12 13 13 15 17 18 17 17 16 15 15 13 11 8 6 6 6 6 6 6 6 6 5 5 4 3 2 1 0 0 1
10 11 11 12 11 11 11 11 11 11 11 11 10 10 10 10 9 9 9 10 10 11 11 10 10 10 10 10 10 10 10 10 10 11 11 10 10 11 12 13 13 13 15 17 17 16 15 15 14 12 10 7 7 6 6 5 5 6 5 5 4 4 3 2 1 1 0 1 1
10 10 11 11 11 11 11 11 11 11 11 11 10 10 9 9 8 8 8 9 10 10 11 11 11 11 11 11 11 11 11 10 10 10 10 10 10 10 11 12 12 12 14 16 16 15 15 14 14 12 11 8 7 6 6 5 5 5 5 4 3 3 2 1 1 1 1 2 2
10 10 10 10 10 10 10 10 10 10 10 10 10 9 9 9 8 8 8 8 9 10 10 11 11 11 11 11 11 11 11 10 10 10 10 10 10 11 11 11 11 12 13 15 15 15 14 14 14 13 11 7 6 6 5 5 5 5 4 3 3 2 2 1 1 1 1 2 3
9 10 10 10 10 10 10 10 10 9 9 9 9 9 8 8 8 8 8 8 9 9 9 10 10 11 11 10 10 10 11 10 9 9 9 9 10 10 9 9 9 10 11 13 14 15 14 14 14 13 11 7 6 5 5 5 5 4 3 2 2 1 1 1 1 1 1 1 2
Wind_Direction
217 212 207 205 205 205 206 208 207 206 205 203 203 202 201 201 201 201 199 198 201 202 201 198 193 190 185 177 179 183 184 179 169 162 159 158 156 154 151 149 149 148 147 146 145 143 140 138 134 131 130 133 134 136 137 139 140 140 138 134 133 133 133 132 126 122 117 111 106
217 214 211 209 208 208 209 210 209 207 206 206 205 204 203 203 204 203 201 200 202 201 198 191 178 171 168 167 169 168 167 168 163 157 153 152 153 152 150 149 150 151 150 149 147 146 145 145 141 138 136 137 137 140 145 148 144 141 139 137 135 133 130 126 122 118 115 113 114
217 214 212 210 210 210 211 211 210 208 208 208 208 206 205 206 206 206 203 199 195 188 179 169 154 147 147 149 152 152 152 153 151 148 145 146 147 148 148 148 150 152 152 151 152 152 151 150 146 144 144 145 148 152 155 156 151 146 142 139 136 134 132 126 123 121 121 125 131
218 214 212 211 211 211 211 212 211 210 208 207 205 205 205 207 208 206 201 191 181 175 170 159 146 142 142 144 146 146 147 147 145 143 141 141 143 145 146 147 149 151 153 152 153 153 152 153 149 147 148 150 155 158 159 156 151 145 136 133 132 132 129 123 123 125 130 135 139
219 216 213 212 212 212 213 215 214 212 209 206 203 202 203 204 203 199 190 181 177 172 163 149 144 143 144 144 144 144 145 146 145 144 142 142 143 144 145 146 148 151 153 154 153 153 152 153 150 149 151 154 158 157 154 148 141 134 127 122 124 123 119 114 116 119 125 135 138
221 218 216 215 214 215 216 219 217 215 211 205 201 200 200 199 193 185 178 175 168 157 147 141 141 142 143 143 144 145 146 147 147 146 145 145 145 145 146 147 150 151 152 154 151 150 150 151 145 145 149 152 153 151 147 141 136 131 127 124 124 121 117 115 113 114 122 135 129
224 221 219 217 215 215 217 218 217 213 207 200 198 198 196 190 183 174 166 156 148 145 145 144 145 146 146 147 147 148 148 148 147 147 146 146 147 148 149 149 150 150 150 149 147 146 146 145 140 140 143 145 145 146 145 141 138 134 132 131 129 126 124 126 127 132 139 141 130
230 225 222 219 216 215 215 214 208 201 195 194 194 192 186 175 165 157 151 145 146 149 151 149 150 150 150 151 151 151 150 149 148 147 147 147 148 149 149 148 147 147 146 145 144 143 143 141 139 140 143 144 146 147 146 142 138 134 132 131 128 127 130 136 143 148 150 145 134
235 228 223 219 216 212 209 204 195 188 185 186 181 176 168 158 151 148 148 149 150 150 149 148 150 150 151 151 151 151 150 149 148 148 147 148 149 149 148 146 145 144 143 142 142 142 141 139 140 142 144 146 148 148 145 140 135 131 128 125 124 125 128 136 145 149 146 139 130
238 229 223 219 214 206 198 188 179 174 171 168 162 157 153 149 149 150 150 149 146 146 147 148 150 150 149 149 149 148 147 147 146 146 148 149 150 149 148 147 146 144 143 143 142 142 142 141 142 142 142 142 144 144 142 137 133 130 127 124 125 125 126 130 136 136 132 124 118
242 234 225 217 207 194 181 171 166 163 160 154 151 149 148 148 148 148 146 142 141 144 146 148 149 149 148 147 146 145 145 145 145 146 148 150 150 150 149 149 148 146 145 146 146 145 144 143 142 141 140 140 141 142 140 137 133 131 129 128 128 127 126 125 122 118 112 107 103
248 241 229 212 192 176 167 165 162 159 155 150 149 148 147 147 146 144 141 140 140 141 143 145 146 146 145 145 145 145 145 145 145 146 148 149 149 149 149 149 148 147 146 147 148 147 145 144 142 141 140 141 143 144 143 140 135 132 131 131 129 126 123 118 111 105 101 99 101
253 238 215 187 168 163 162 161 160 156 152 148 148 146 144 143 142 140 139 139 138 137 137 140 140 140 141 142 145 147 147 147 147 147 147 147 147 147 147 147 146 145 144 145 146 145 142 142 141 141 142 144 146 147 145 142 137 134 132 130 127 122 117 112 107 103 103 105 110
257 200 175 159 156 157 157 156 153 149 145 143 142 139 138 137 138 138 137 137 136 135 135 137 139 141 142 144 145 147 147 147 147 146 146 145 145 146 145 144 143 141 140 139 140 139 138 139 141 142 143 143 144 143 141 139 134 131 128 125 121 117 113 109 108 110 113 118 122
49 91 127 140 147 150 150 148 142 136 132 133 132 133 133 134 135 134 134 133 133 134 135 138 139 141 142 143 144 145 146 146 146 145 144 143 142 142 141 139 138 137 136 136 136 136 136 137 139 139 138 136 134 132 130 127 124 121 119 117 116 114 113 114 117 120 124 129 130
44 56 79 114 131 136 137 136 128 122 122 123 125 127 129 130 130 130 130 132 132 133 135 138 138 138 139 141 142 143 143 143 143 142 141 140 140 139 138 137 137 137 137 137 136 135 135 135 134 132 129 126 123 121 119 116 113 111 111 112 114 116 120 124 126 128 131 134 136
45 48 58 84 104 112 115 114 111 112 114 117 120 122 124 126 127 128 130 133 133 134 135 136 135 135 136 138 140 140 140 139 139 138 138 138 139 138 138 137 136 136 135 135 134 132 130 128 126 123 120 118 117 115 113 111 110 110 111 114 117 121 125 128 129 130 132 133 136
56 54 58 73 87 94 97 99 102 106 110 113 114 116 118 122 125 127 129 130 131 132 133 132 131 132 133 134 134 135 135 135 134 134 135 136 136 135 134 133 131 130 129 129 128 128 126 123 121 118 115 114 112 111 109 108 109 110 112 113 115 118 121 124 126 127 129 131 132
78 72 71 78 86 91 95 99 103 106 108 109 108 109 111 117 120 122 124 125 128 130 130 129 128 128 128 129 128 128 129 130 129 130 130 131 130 128 126 125 123 123 123 123 124 124 123 121 118 116 113 111 108 106 105 106 107 108 109 109 110 111 113 117 120 123 125 128 130
93 88 84 84 88 91 96 100 103 105 105 104 103 104 107 111 114 117 119 122 125 126 127 127 127 126 126 125 124 124 123 124 125 125 125 125 124 123 121 120 120 120 121 121 122 121 120 117 115 113 111 109 107 106 106 106 107 106 106 104 105 106 108 111 114 118 121 124 131
94 92 89 86 85 87 91 96 99 100 101 100 101 103 105 108 109 111 114 117 119 121 122 124 125 126 126 124 123 122 120 119 121 121 121 121 121 121 121 121 121 121 121 121 120 119 117 115 113 111 110 109 109 109 110 109 108 106 104 102 102 103 105 108 112 116 120 124 134
96 93 90 86 84 85 88 92 94 97 98 100 102 104 106 106 106 106 108 111 112 113 116 119 121 123 123 123 122 121 119 116 117 118 118 119 120 120 120 121 122 121 120 120 119 117 115 113 113 112 111 110 111 112 112 112 110 108 105 104 103 104 106 109 113 117 122 127 137
101 96 92 88 85 85 87 89 92 95 98 101 104 106 106 105 104 104 104 107 108 109 110 112 115 117 118 119 119 119 118 116 115 115 116 117 118 119 119 119 120 120 120 119 118 117 115 113 113 112 112 112 112 112 113 113 112 111 110 109 109 110 111 113 117 120 125 133 142
102 98 93 89 87 87 89 91 93 97 101 104 106 106 105 104 103 103 103 105 106 107 108 109 110 112 114 115 116 117 118 118 117 116 116 117 118 118 117 116 116 117 117 118 119 119 118 115 114 113 112 111 112 112 113 114 115 115 116 116 116 117 119 121 125 130 136 144 153
100 95 92 90 90 91 93 96 98 101 103 104 104 104 104 104 104 104 104 104 105 106 106 108 108 110 111 113 114 115 116 118 119 119 118 117 116 115 114 112 113 114 116 119 120 120 118 116 115 113 112 111 111 112 113 115 118 120 122 123 125 126 129 134 138 143 148 153 163
97 94 91 90 92 95 97 99 101 102 102 101 101 102 102 104 104 105 105 105 105 105 106 108 108 109 110 111 112 113 113 115 118 119 119 117 115 113 111 111 113 114 118 123 122 120 118 116 115 113 112 112 114 115 116 118 121 124 126 128 131 136 141 145 150 150 148 142 148
99 96 94 93 95 97 99 101 101 101 100 100 101 102 103 105 105 106 106 106 107 107 107 107 108 109 110 110 112 113 113 113 115 115 116 116 114 113 112 111 114 117 122 125 123 122 120 118 117 116 115 115 117 119 121 122 124 124 126 130 135 141 144 146 145 141 133 122 124
102 100 98 97 98 99 100 101 100 100 101 102 104 105 105 106 107 108 109 110 110 109 108 107 108 109 110 110 113 114 114 113 113 113 113 113 113 113 114 114 116 122 125 126 124 123 122 122 121 120 120 118 118 119 120 122 123 123 124 127 130 131 131 130 128 125 124 123 123
101 99 99 99 100 100 100 99 99 101 102 104 105 106 107 107 109 111 112 113 112 112 111 112 111 110 110 112 112 112 112 112 112 113 113 113 113 113 114 116 119 124 127 127 125 125 125 126 126 125 123 120 117 116 117 119 120 121 120 118 117 115 115 115 118 122 125 125 119
97 98 99 100 99 98 97 98 100 101 103 105 106 107 108 110 111 113 113 113 113 113 114 114 113 112 112 113 112 111 111 111 113 114 115 116 116 116 118 120 123 126 128 129 127 128 128 129 127 124 121 117 113 112 113 116 117 115 113 108 108 110 112 115 119 122 123 120 110
94 96 98 99 98 97 98 99 101 104 106 108 109 110 110 110 111 111 111 112 111 111 109 109 110 111 111 111 111 111 112 113 114 116 118 119 120 120 121 122 125 127 129 130 129 128 128 126 123 120 116 113 112 110 111 111 110 109 108 109 112 114 116 118 118 116 112 105 97
96 98 100 101 101 102 103 105 106 108 109 110 110 109 108 107 106 106 106 107 108 109 108 108 110 110 111 111 112 113 115 117 118 120 121 121 122 122 123 124 126 128 129 129 127 125 123 120 118 115 114 113 111 109 108 106 105 105 107 111 114 116 118 117 113 107 100 94 89
101 103 104 105 105 106 107 107 108 108 107 106 105 104 104 103 102 101 102 104 107 109 110 111 112 114 115 116 117 117 118 120 121 121 122 121 122 122 122 123 123 126 127 126 123 121 119 116 115 114 114 113 110 108 107 107 107 108 110 112 113 113 113 111 108 105 100 94 88
101 103 103 104 103 103 103 103 103 103 102 101 100 100 101 102 103 103 104 106 107 108 110 111 113 114 116 118 119 120 121 122 121 121 121 121 121 120 120 119 119 123 125 123 121 118 117 115 114 114 114 112 109 108 110 110 111 113 114 114 113 111 108 105 103 102 102 103 97
98 100 100 100 100 100 100 100 100 100 100 100 101 101 102 103 105 107 109 110 109 107 106 107 108 110 111 112 114 117 119 119 118 117 118 119 118 117 116 115 117 121 123 121 119 117 115 114 114 114 114 112 110 111 113 114 115 117 118 117 114 109 104 99 96 95 98 108 117
95 98 99 99 99 100 101 102 102 102 102 103 104 104 105 105 106 109 111 112 110 108 107 107 108 107 107 107 108 110 113 115 114 113 114 115 116 115 115 116 118 121 121 119 117 115 114 114 115 115 116 115 115 116 118 118 119 119 118 115 110 105 100 94 92 91 95 123 157
93 96 99 100 101 102 104 105 105 105 105 106 107 107 108 108 108 110 112 114 112 110 110 109 109 108 107 106 105 105 106 108 110 110 110 111 113 114 116 117 118 119 119 117 115 113 113 115 117 119 120 120 122 123 122 122 121 119 116 110 105 99 93 87 83 82 90 219 193
89 94 97 100 102 104 105 106 106 107 108 109 109 109 110 111 111 113 115 116 115 114 112 110 109 107 106 105 103 101 100 101 103 105 105 105 107 110 113 115 116 116 116 115 114 114 116 120 123 126 128 127 128 127 126 123 121 118 114 108 104 96 86 73 61 33 331 272 172
86 91 95 99 102 103 104 105 106 108 110 110 110 110 110 110 111 113 115 115 114 113 112 110 109 107 105 104 100 97 95 93 94 96 98 98 99 103 106 110 112 114 115 116 117 119 123 127 130 132 133 130 130 129 126 122 119 116 113 109 106 98 84 60 37 10 343 325 31
85 89 93 97 99 101 102 103 105 106 108 109 109 109 109 109 110 110 110 109 108 108 108 108 107 105 104 102 99 96 92 88 87 88 91 94 96 98 101 105 110 115 119 122 124 127 130 133 134 135 134 129 129 127 124 122 120 117 115 110 108 100 86 50 25 6 347 337 354
83 87 90 93 95 97 99 100 101 101 101 103 104 106 107 107 107 107 107 105 104 103 102 103 102 101 100 98 96 95 92 89 85 85 87 91 93 95 97 101 110 118 125 129 132 133 134 135 135 135 133 128 126 124 124 123 123 121 120 113 104 96 86 53 18 359 345 333 324